Location: Belfast
(54.5830°N, 5.9330°W)
Time: 22:37:32
(UTC+01:00)

ISS - Visible Passes

Search period start: 22 May 2018 00:00
Search period end: 01 June 2018 00:00
Orbit: 402 x 407 km, 51.6° (Epoch: 23 May)

Date Brightness Start Highest point End Pass type
(mag) Time Alt. Az. Time Alt. Az. Time Alt. Az.
22 May -3.6 00:27:15 10° WSW 00:30:23 44° S 00:33:32 10° E visible
22 May -3.6 02:03:28 10° W 02:06:37 45° S 02:09:46 10° ESE visible
22 May -2.5 03:40:07 10° W 03:42:38 21° SSW 03:45:11 10° SSE visible
22 May -3.3 23:35:17 10° SW 23:38:20 37° SSE 23:41:24 10° E visible
23 May -3.7 01:11:21 10° W 01:14:33 50° S 01:17:44 10° ESE visible
23 May -3.0 02:47:49 10° W 02:50:40 28° SSW 02:53:31 10° SE visible
23 May -2.9 22:43:25 10° SW 22:46:18 29° SSE 22:49:12 10° E visible
24 May -3.7 00:19:15 10° WSW 00:22:27 50° S 00:25:38 10° E visible
24 May -3.3 01:55:37 10° W 01:58:38 36° SSW 02:00:20 20° SE visible
24 May -3.6 23:27:11 10° WSW 23:30:20 46° S 23:33:30 10° E visible
25 May -3.5 01:03:26 10° W 01:06:34 43° SSW 01:08:20 21° SE visible
25 May -1.7 02:40:11 10° WSW 02:40:55 14° WSW 02:40:55 14° WSW visible
25 May -3.3 22:35:09 10° SW 22:38:14 39° SSE 22:41:20 10° E visible
26 May -3.7 00:11:17 10° W 00:14:27 49° S 00:17:17 12° ESE visible
26 May -2.5 01:47:47 10° W 01:49:54 23° SW 01:49:54 23° SW visible
26 May -3.7 23:19:08 10° WSW 23:22:19 50° S 23:25:31 10° ESE visible
27 May -3.1 00:55:31 10° W 00:58:30 33° SSW 00:59:05 30° S visible
27 May -3.5 22:27:00 10° WSW 22:30:10 48° S 22:33:21 10° E visible
28 May -3.4 00:03:17 10° W 00:06:23 41° SSW 00:08:22 19° SE visible
28 May -1.6 01:40:10 10° WSW 01:40:59 13° WSW 01:40:59 13° WSW visible
28 May -3.5 23:11:05 10° W 23:14:15 47° S 23:17:25 10° ESE visible
29 May -2.5 00:47:39 10° W 00:50:18 23° SSW 00:50:20 23° SSW visible
29 May -2.9 23:55:18 10° W 23:58:13 30° SSW 23:59:42 20° SSE visible
30 May -3.2 23:03:01 10° W 23:06:06 38° SSW 23:09:07 10° SE visible
31 May -1.8 00:40:06 10° WSW 00:41:44 14° SW 00:41:44 14° SW visible
31 May -2.2 23:47:26 10° W 23:49:56 20° SSW 23:51:10 17° S visible
